Regional Weather Roundup
Issued by NWS

Home | Current Version | Previous Version | Text Only | Print | Product List | Glossary Off
Versions: 1 2 3 4 5 6 7 8 9 10 11 12 13 14 15 16 17 18 19 20 21 22 23 24 25 26 27 28 29 30 31 32 33 34 35 36 37 38 39 40 41 42 43 44 45 46 47 48 49 50

000
ASUS43 KLOT 231303
RWRIL

ILLINOIS REGIONAL WEATHER ROUNDUP
NATIONAL WEATHER SERVICE CHICAGO/ROMEOVILLE IL
800 AM CDT SAT JUL 23 2016

NOTE: "FAIR" INDICATES FEW OR NO CLOUDS BELOW 12,000 FEET WITH NO
SIGNIFICANT WEATHER AND/OR OBSTRUCTIONS TO VISIBILITY.

* THESE STATIONS ARE NOT UNDER NWS QUALITY CONTROL. THEY ALSO MAY NOT
  REPORT WEATHER SUCH AS PRECIPITATION OR FOG.

ILZ001-002-007-009-015-016-024-231400-
NORTHWEST ILLINOIS

CITY           SKY/WX    TMP DP  RH WIND       PRES   REMARKS
MOLINE         SUNNY     80  75  84 SE3       29.96F HX  85
STERLING*      CLOUDY    78  77  96 SE3       29.99S HX  81
SAVANNA*       SUNNY     79  77  92 SE3       29.96F HX  83
$$

ILZ003-004-008-010-011-017-018-231400-
NORTH CENTRAL ILLINOIS

CITY           SKY/WX    TMP DP  RH WIND       PRES   REMARKS
ROCKFORD       MOSUNNY   80  76  87 SE3       29.99F HX  86
FREEPORT*      MOSUNNY   76  74  94 E3        30.00S FOG
ROCHELLE*      MOSUNNY   78  76  94 CALM      30.00S HX  80
DE KALB*       SUNNY     81  77  89 CALM      30.01S HX  88
$$

ILZ005-006-012>014-019>023-231400-
NORTHEAST ILLINOIS

CITY           SKY/WX    TMP DP  RH WIND       PRES   REMARKS
CHICAGO-OHARE  PTSUNNY   81  75  82 CALM      29.99S HX  87
CHICAGO-MIDWAY PTSUNNY   83  75  77 CALM      29.98F HX  90
AURORA         SUNNY     81  76  84 SE3       30.00S HX  87
LANSING*       MOSUNNY   81  74  81 CALM      30.00S HX  86
WAUKEGAN       MOSUNNY   80  77  90 CALM      29.98R HX  87
DUPAGE AIRPORT SUNNY     81  75  82 CALM      29.99F HX  87
WHEELING       MOSUNNY   83  75  77 NW3       30.00R HX  90
MORRIS*        SUNNY     79  76  91 CALM      29.99S HX  82
NORTHERLY ISL    N/A     78  72  81 E2          N/A  HX  80
$$

LMZ740>746-231400-
SOUTHERN LAKE MICHIGAN

STATION/POSITION SKY/WX   TEMP    WIND        PRES    VSBY  WAVE
                          AIR SEA DIR/SP/G                  HT/PER
                          (F)     (DEG/KT/KT) (MB)    (MI)  (FT/S)
SOUTHERN BUOY              74 73  200/  4/  6 1014.8          0
WILMETTE HARBOR            72 69  340/  2/  4   N/A           0
HARRISON CRIB              81     310/  4/  5   N/A
BURNHAM HARBOR             79      80/  2/  6   N/A
CALUMET HARBOR             79     210/  2/  3 1015.1R
BURNS HARBOR               77     230/  4/  6 1016.3R
MICHIGAN CITY              77     210/  5/  5   N/A
MICHIGAN CITY 6N           76 74  250/  4/  4   N/A           0
ST. JOSEPH                 76 75  170/  4/  4 1015.4R         0
$$

ILZ025>027-034>036-040-047-049-050-058-095>099-231400-
WEST-CENTRAL ILLINOIS

CITY           SKY/WX    TMP DP  RH WIND       PRES   REMARKS
QUINCY         SUNNY     79  72  79 SE5       29.99R HX  82
GALESBURG*     SUNNY     77  76  95 SE5       29.99S
MACOMB*        SUNNY     76  76  99 SE6       30.01F
JACKSONVILLE*  SUNNY     78  74  87 CALM      30.01R HX  81
PITTSFIELD*    SUNNY     78  74  88 CALM      30.01R HX  81
$$

ILZ028>032-037-038-041>044-048-051>054-059>061-231400-
CENTRAL ILLINOIS

CITY           SKY/WX    TMP DP  RH WIND       PRES   REMARKS
PONTIAC        SUNNY     79  78  94 CALM      30.02R HX  84
BLOOMINGTON    SUNNY     79  75  87 VRB5      30.03R HX  83
DECATUR        SUNNY     79  74  84 CALM      30.02R HX  82
PEORIA         SUNNY     79  77  94 S6        30.00R HX  83
LACON*         MOSUNNY   78  75  90 CALM      29.99R HX  82
LINCOLN*       SUNNY     78  76  93 CALM      30.01R HX  82
SPRINGFIELD    SUNNY     81  75  82 S3        30.01R HX  87
TAYLORVILLE    SUNNY     78  75  89 CALM      30.02R HX  81
$$

ILZ033-039-045-046-055>057-062-063-231400-
EAST-CENTRAL ILLINOIS

CITY           SKY/WX    TMP DP  RH WIND       PRES   REMARKS
CHAMPAIGN      SUNNY     79  74  84 CALM      30.03S HX  82
MATTOON        SUNNY     78  73  84 S6        30.02R HX  81
PARIS*         SUNNY     77  75  93 CALM      30.03R
$$

ILZ079-100>102-231400-
SOUTHWEST ILLINOIS

CITY           SKY/WX    TMP DP  RH WIND       PRES   REMARKS
ALTON          SUNNY     75  73  94 SE6       30.01S
BELLEVILLE     SUNNY     78  78 100 SE3       30.00R HX  81
CAHOKIA*       SUNNY     79  73  82 S5        30.00R HX  82
SPARTA*        PTSUNNY   77  74  93 CALM      30.02R
$$

ILZ064>066-069>071-074>076-080>082-084>086-088>090-092>094-231400-
SOUTH-CENTRAL ILLINOIS

CITY           SKY/WX    TMP DP  RH WIND       PRES   REMARKS
CARBONDALE     FOG       75  74  96 CALM      30.01R VSB 1/4
CAIRO*         PTSUNNY   76  75  97 CALM      30.01R
EFFINGHAM*     SUNNY     77  76  97 CALM      30.03S
MARION         PTSUNNY   77  77 100 SE3       30.01R FOG
MT. VERNON     MOSUNNY   77  72  83 CALM      30.03R
CENTRALIA*     SUNNY     78  76  92 CALM      30.02R HX  81
SALEM*         SUNNY     79  75  88 CALM      30.02S HX  82
METROPOLIS*    MOSUNNY   78  76  94 CALM      30.01R
$$

ILZ067-068-072-073-078-083-087-091-231400-
SOUTHEAST ILLINOIS

CITY           SKY/WX    TMP DP  RH WIND       PRES   REMARKS
LAWRENCEVILLE  CLOUDY    75  75 100 CALM      30.02R FOG
FLORA*         SUNNY     78  76  91 CALM      30.02R HX  82
FAIRFIELD*     MOSUNNY   78  76  95 CALM      30.01R HX  80
HARRISBURG*    FOG       77  77 100 CALM      30.01R VSB 1/4
ROBINSON*      SUNNY     77  76  97 SE3       30.03R
CARMI*         CLOUDY    77  77 100 CALM      30.00R FOG
$$

ABBREVIATIONS USED IN REMARKS
   TC - TEMPERATURE IN CELSIUS
  WCI - WIND CHILL INDEX
   HX - HEAT INDEX
  VSB - VISIBILITY
$$




USA.gov is the U.S. government's official web portal to all federal, state and local government web resources and services.